Change the Weather History Date:

Sunday, October 23, 2011

  Actual Average Record
Temperature  
Mean Temperature 51 °F 43 °F  
Max Temperature 68 °F 59 °F 83 °F (2003)
Min Temperature 33 °F 28 °F 19 °F (2008)
Degree Days  
Heating Degree Days 14 22  
Month to date heating degree days 325 413  
Since 1 July heating degree days 484 682  
Cooling Degree Days 0 0  
Month to date cooling degree days 0 0  
Year to date cooling degree days 641 486  
Growing Degree Days 2 (Base 50)    
Moisture  
Dew Point 30 °F    
Average Humidity 50    
Maximum Humidity 76    
Minimum Humidity 24    
Precipitation  
Precipitation 0.00 in 0.03 in 0.18 in (2010)
Month to date precipitation 1.63 0.89  
Year to date precipitation 12.66 12.17  
Sea Level Pressure  
Sea Level Pressure 30.03 in    
Wind  
Wind Speed 8 mph (NW)    
Max Wind Speed 26 mph    
Max Gust Speed 32 mph    
Visibility 10 miles    
Events      
T = Trace of Precipitation, MM = Missing Value Source: NWS Daily Summary

Daily Weather History Graph

Daily Weather History Graph

Search for Another Location

Airport or City:

Trip Planner

Search our weather history database for the weather conditions in past years. The results will help you decide how hot, cold, wet, or windy it might be!

Date:

Astronomy

Oct. 23, 2011 Rise Set
Actual Time 7:24 AM MDT 6:06 PM MDT
Civil Twilight 6:55 AM MDT 6:35 PM MDT
Nautical Twilight 6:22 AM MDT 7:08 PM MDT
Astronomical Twilight 5:49 AM MDT 7:41 PM MDT
Moon 3:29 AM MDT (10/23) 4:02 PM MDT (10/23)
Length of Visible Light 11h 40m
Length of Day
10h 42m
Waning Crescent, 14% of the Moon is Illuminated
Oct 23
Waning Crescent
Oct 26
New
Nov 2
First Quarter
Nov 10
Full
Nov 18
Last Quarter

Hourly Weather History & Observations

Time (MDT) Temp. Windchill Dew Point Humidity Pressure Visibility Wind Dir Wind Speed Gust Speed Precip Events Conditions
12:53 AM 44.1 °F 40.1 °F 30.0 °F 58% 29.99 in 10.0 mi North 6.9 mph - N/A   Clear
1:53 AM 43.0 °F 36.8 °F 30.0 °F 60% 30.02 in 10.0 mi North 11.5 mph - N/A   Clear
2:53 AM 43.0 °F 37.7 °F 30.0 °F 60% 30.03 in 10.0 mi NNW 9.2 mph - N/A   Clear
3:53 AM 39.9 °F 35.1 °F 28.9 °F 65% 30.04 in 10.0 mi WNW 6.9 mph - N/A   Clear
4:53 AM 37.9 °F 35.5 °F 28.9 °F 70% 30.06 in 10.0 mi NW 3.5 mph - N/A   Clear
5:53 AM 36.0 °F 33.3 °F 28.9 °F 76% 30.09 in 10.0 mi NNW 3.5 mph - N/A   Clear
6:53 AM 36.0 °F 32.1 °F 28.9 °F 76% 30.11 in 10.0 mi NNW 4.6 mph - N/A   Clear
8:53 AM 45.0 °F 43.5 °F 32.0 °F 60% 30.12 in 10.0 mi NNW 3.5 mph - N/A   Clear
11:53 AM 64.0 °F - 30.9 °F 29% 30.04 in 10.0 mi WNW 21.9 mph - N/A   Clear
12:53 PM 66.0 °F - 28.9 °F 25% 30.01 in 10.0 mi West 19.6 mph 29.9 mph N/A   Clear
1:53 PM 66.9 °F - 30.0 °F 25% 29.99 in 10.0 mi WNW 20.7 mph 26.5 mph N/A   Clear
2:53 PM 66.9 °F - 28.9 °F 24% 29.97 in 10.0 mi WNW 15.0 mph - N/A   Clear
3:53 PM 68.0 °F - 30.0 °F 24% 29.97 in 10.0 mi WNW 15.0 mph 23.0 mph N/A   Clear
4:53 PM 66.9 °F - 30.9 °F 26% 29.96 in 10.0 mi WNW 11.5 mph - N/A   Clear
5:53 PM 60.1 °F - 30.0 °F 32% 30.01 in 10.0 mi NW 6.9 mph - N/A   Clear
6:53 PM 51.1 °F - 30.0 °F 44% 30.05 in 10.0 mi Calm Calm - N/A   Clear
7:53 PM 48.0 °F - 30.9 °F 52% 30.08 in 10.0 mi NNW 4.6 mph - N/A   Clear
8:53 PM 48.0 °F - 30.9 °F 52% 30.06 in 10.0 mi Calm Calm - N/A   Clear
9:53 PM 41.0 °F - 32.0 °F 70% 30.06 in 10.0 mi Calm Calm - N/A   Clear
10:53 PM 42.1 °F 39.2 °F 30.9 °F 65% 30.03 in 10.0 mi West 4.6 mph - N/A   Clear
11:53 PM 37.0 °F - 30.9 °F 79% 30.03 in 10.0 mi Calm Calm - N/A   Clear